EDT,Max TemperatureF,Mean TemperatureF,Min TemperatureF,Max Dew PointF,MeanDew PointF,Min DewpointF,Max Humidity, Mean Humidity, Min Humidity, Max Sea Level PressureIn, Mean Sea Level PressureIn, Min Sea Level PressureIn, Max VisibilityMiles, Mean VisibilityMiles, Min VisibilityMiles, Max Wind SpeedMPH, Mean Wind SpeedMPH, Max Gust SpeedMPH,PrecipitationIn, CloudCover, Events, WindDirDegrees
2012-8-1,89,76,63,69,65,61,93,67,40,30.02,29.92,29.83,10,7,0,9,2,15,0.13,3,Fog-Rain,23
2012-8-2,91,78,64,68,66,63,100,72,44,29.96,29.90,29.87,10,9,4,12,4,15,0.00,1,,135
2012-8-3,91,78,65,70,68,64,100,74,47,30.11,30.03,29.94,10,8,1,22,2,28,0.36,4,Rain-Thunderstorm,210
2012-8-4,90,79,68,72,68,65,100,73,46,30.21,30.14,30.09,10,5,0,18,6,25,0.00,2,Fog,188
2012-8-5,90,80,70,72,69,65,93,70,46,30.21,30.15,30.08,10,10,10,22,8,33,0.01,3,Rain,210
2012-8-6,86,79,71,71,70,66,93,72,51,30.14,30.08,30.03,10,10,10,9,2,13,T,4,Rain,225
2012-8-7,88,79,69,71,69,67,100,76,51,30.06,30.01,29.96,10,7,0,13,2,16,0.00,3,Fog,184
2012-8-8,90,79,67,72,68,64,100,72,44,30.04,29.99,29.95,10,7,0,15,3,16,0.00,3,Fog,188
2012-8-9,91,77,63,69,65,60,100,69,38,29.99,29.93,29.85,10,9,5,15,6,21,0.00,0,,194
2012-8-10,85,77,69,71,68,66,97,76,55,29.89,29.83,29.77,10,9,2,17,7,24,0.37,6,Rain-Thunderstorm,200
2012-8-11,82,75,68,70,66,58,93,69,45,29.94,29.88,29.83,10,9,4,12,4,16,0.06,4,Rain-Thunderstorm,201
2012-8-12,85,73,61,70,60,53,93,65,37,30.04,29.99,29.94,10,10,9,10,2,15,0.00,2,,4
2012-8-13,86,73,59,63,60,57,93,67,40,30.07,30.01,29.95,10,10,10,15,3,20,0.00,1,,192
2012-8-14,89,78,67,65,62,58,93,65,36,29.96,29.91,29.84,10,10,10,15,4,17,0.00,0,,205
2012-8-15,83,73,62,66,63,59,93,70,46,29.98,29.92,29.88,10,10,10,14,2,18,T,1,,357
2012-8-16,88,74,59,63,58,50,97,63,29,30.05,30.00,29.94,10,10,10,10,2,14,0.00,0,,346
2012-8-17,89,75,60,68,62,58,97,68,39,29.97,29.90,29.83,10,10,7,16,3,23,T,2,Rain,219
2012-8-18,85,75,64,64,59,53,93,65,37,29.95,29.90,29.86,10,10,10,12,3,15,0.00,3,,45
2012-8-19,69,66,63,64,62,60,93,85,76,29.99,29.94,29.90,10,8,1,13,4,15,0.48,7,Rain,16
2012-8-20,79,71,62,66,62,60,100,77,54,30.02,29.94,29.88,10,7,1,10,1,13,0.27,4,Rain,204
2012-8-21,83,71,58,64,60,56,100,71,42,30.10,30.04,30.00,10,7,1,9,2,18,0.00,1,,42
2012-8-22,82,73,64,66,62,60,93,72,51,30.18,30.13,30.09,10,10,6,8,2,14,0.04,5,Rain,36
2012-8-23,84,74,64,65,62,58,93,68,43,30.20,30.15,30.11,10,9,4,10,2,14,0.00,1,,62
2012-8-24,82,73,63,63,59,55,93,68,42,30.19,30.16,30.13,10,9,5,13,3,17,0.00,0,,98
2012-8-25,72,68,64,64,62,58,100,84,68,30.19,30.15,30.12,10,8,2,18,5,22,0.93,7,Rain,8
2012-8-26,80,73,65,65,64,61,100,77,54,30.23,30.17,30.11,10,7,2,8,2,13,0.05,7,Rain,37
2012-8-27,87,74,61,67,63,59,100,72,44,30.21,30.14,30.03,10,6,0,9,2,,0.00,0,Fog-Rain,204
2012-8-28,87,75,62,69,65,61,100,74,48,30.04,29.98,29.92,10,10,6,10,3,14,T,3,,223
2012-8-29,86,76,66,68,62,57,93,67,40,30.04,29.99,29.95,10,10,7,12,3,17,0.00,2,,56
2012-8-30,88,76,64,68,65,62,93,68,43,30.16,30.10,30.04,10,9,6,12,3,14,0.00,3,,180
2012-8-31,94,82,69,72,69,63,100,68,36,30.23,30.14,30.06,10,6,0,12,4,16,0.00,2,Fog,212